Year,Month,Day,Hour,Minute,Value (Times are PST for windspeed in km/hr)
2009,08,19,15,40,0.00
2009,08,19,15,41,3.20
2009,08,19,15,42,8.00
2009,08,19,15,43,3.20
2009,08,19,15,44,3.20
2009,08,19,15,45,1.60
2009,08,19,15,46,8.00
2009,08,19,15,47,3.20
2009,08,19,15,48,3.20
2009,08,19,15,49,6.40
2009,08,19,15,50,11.30
2009,08,19,15,51,0.00
2009,08,19,15,52,4.80
2009,08,19,15,53,1.60
2009,08,19,15,54,0.00
2009,08,19,15,55,3.20
2009,08,19,15,56,11.30
2009,08,19,15,57,8.00
2009,08,19,15,58,3.20
2009,08,19,15,59,0.00
2009,08,19,16,00,1.60
2009,08,19,16,01,0.00
2009,08,19,16,02,0.00
2009,08,19,16,03,1.60
2009,08,19,16,04,0.00
2009,08,19,16,05,1.60
2009,08,19,16,06,8.00
2009,08,19,16,07,0.00
2009,08,19,16,08,3.20
2009,08,19,16,09,1.60
2009,08,19,16,10,14.50
2009,08,19,16,11,8.00
2009,08,19,16,12,11.30
2009,08,19,16,13,1.60
2009,08,19,16,14,0.00
2009,08,19,16,15,6.40
2009,08,19,16,16,1.60
2009,08,19,16,17,0.00
2009,08,19,16,18,0.00
2009,08,19,16,19,4.80
2009,08,19,16,20,0.00
2009,08,19,16,21,0.00
2009,08,19,16,22,3.20
2009,08,19,16,23,3.20
2009,08,19,16,24,3.20
2009,08,19,16,25,0.00
2009,08,19,16,26,0.00
2009,08,19,16,27,1.60
2009,08,19,16,28,1.60
2009,08,19,16,29,0.00
2009,08,19,16,30,3.20
2009,08,19,16,31,0.00
2009,08,19,16,32,1.60
2009,08,19,16,33,3.20
2009,08,19,16,34,3.20
2009,08,19,16,35,0.00
2009,08,19,16,36,3.20
2009,08,19,16,37,1.60
2009,08,19,16,38,0.00
2009,08,19,16,39,3.20
2009,08,19,16,40,8.00
2009,08,19,16,41,8.00
2009,08,19,16,42,3.20
2009,08,19,16,43,3.20
2009,08,19,16,44,1.60
2009,08,19,16,45,3.20
2009,08,19,16,46,8.00
2009,08,19,16,47,8.00
2009,08,19,16,48,9.70
2009,08,19,16,49,14.50
2009,08,19,16,50,24.10
2009,08,19,16,51,25.70
2009,08,19,16,52,22.50
2009,08,19,16,53,11.30
2009,08,19,16,54,9.70
2009,08,19,16,55,17.70
2009,08,19,16,56,9.70
2009,08,19,16,57,9.70
2009,08,19,16,58,19.30
2009,08,19,16,59,19.30
2009,08,19,17,00,24.10
2009,08,19,17,01,16.10
2009,08,19,17,02,8.00
2009,08,19,17,03,9.70
2009,08,19,17,04,20.90
2009,08,19,17,05,16.10
2009,08,19,17,06,9.70
2009,08,19,17,07,20.90
2009,08,19,17,08,12.90
2009,08,19,17,09,8.00
2009,08,19,17,10,11.30
2009,08,19,17,11,12.90
2009,08,19,17,12,14.50
2009,08,19,17,13,9.70
2009,08,19,17,14,14.50
2009,08,19,17,15,8.00
2009,08,19,17,16,11.30
2009,08,19,17,17,9.70
2009,08,19,17,18,17.70
2009,08,19,17,19,11.30
2009,08,19,17,20,11.30
2009,08,19,17,21,16.10
2009,08,19,17,22,12.90
2009,08,19,17,23,6.40
2009,08,19,17,24,24.10
2009,08,19,17,25,11.30
2009,08,19,17,26,4.80
2009,08,19,17,27,22.50
2009,08,19,17,28,20.90
2009,08,19,17,29,11.30
2009,08,19,17,30,17.70
2009,08,19,17,31,19.30
2009,08,19,17,32,14.50
2009,08,19,17,33,9.70
2009,08,19,17,34,9.70
2009,08,19,17,35,8.00
2009,08,19,17,36,6.40
2009,08,19,17,37,14.50
2009,08,19,17,38,16.10
2009,08,19,17,39,16.10
2009,08,19,17,40,16.10
2009,08,19,17,41,12.90
2009,08,19,17,42,19.30
2009,08,19,17,43,17.70
2009,08,19,17,44,19.30
2009,08,19,17,45,16.10
2009,08,19,17,46,11.30
2009,08,19,17,47,12.90
2009,08,19,17,48,6.40
2009,08,19,17,49,11.30
2009,08,19,17,50,20.90
2009,08,19,17,51,11.30
2009,08,19,17,52,12.90
2009,08,19,17,53,12.90
2009,08,19,17,54,11.30
2009,08,19,17,55,8.00
2009,08,19,17,56,9.70
2009,08,19,17,57,9.70
2009,08,19,17,58,12.90
2009,08,19,17,59,12.90
2009,08,19,18,00,9.70
2009,08,19,18,01,11.30
2009,08,19,18,02,8.00
2009,08,19,18,03,0.00
2009,08,19,18,04,4.80
2009,08,19,18,05,0.00
2009,08,19,18,06,3.20
2009,08,19,18,07,9.70
2009,08,19,18,08,17.70
2009,08,19,18,09,12.90
2009,08,19,18,10,14.50
2009,08,19,18,11,11.30
2009,08,19,18,12,12.90
2009,08,19,18,13,6.40
2009,08,19,18,14,12.90
2009,08,19,18,15,12.90
2009,08,19,18,16,14.50
2009,08,19,18,17,14.50
2009,08,19,18,18,12.90
2009,08,19,18,19,9.70
2009,08,19,18,20,8.00
2009,08,19,18,21,6.40
2009,08,19,18,22,8.00
2009,08,19,18,23,8.00
2009,08,19,18,24,3.20
2009,08,19,18,25,8.00
2009,08,19,18,26,8.00
2009,08,19,18,27,4.80
2009,08,19,18,28,8.00
2009,08,19,18,29,8.00
2009,08,19,18,30,12.90
2009,08,19,18,31,12.90
2009,08,19,18,32,16.10
2009,08,19,18,33,14.50
2009,08,19,18,34,9.70
2009,08,19,18,35,16.10
2009,08,19,18,36,12.90
2009,08,19,18,37,11.30
2009,08,19,18,38,14.50
2009,08,19,18,39,12.90
2009,08,19,18,40,11.30
2009,08,19,18,41,8.00
2009,08,19,18,42,11.30
2009,08,19,18,43,8.00
2009,08,19,18,44,6.40
2009,08,19,18,45,12.90
2009,08,19,18,46,12.90
2009,08,19,18,47,12.90
2009,08,19,18,48,11.30
2009,08,19,18,49,3.20
2009,08,19,18,50,8.00
2009,08,19,18,51,3.20
2009,08,19,18,52,8.00
2009,08,19,18,53,3.20
2009,08,19,18,54,3.20
2009,08,19,18,55,6.40
2009,08,19,18,56,6.40
2009,08,19,18,57,8.00
2009,08,19,18,58,4.80
2009,08,19,18,59,6.40
2009,08,19,19,00,9.70
2009,08,19,19,01,8.00
2009,08,19,19,02,11.30
2009,08,19,19,03,4.80
2009,08,19,19,04,6.40
2009,08,19,19,05,6.40
2009,08,19,19,06,1.60
2009,08,19,19,07,1.60
2009,08,19,19,08,6.40
2009,08,19,19,09,6.40
2009,08,19,19,10,4.80
2009,08,19,19,11,8.00
2009,08,19,19,12,6.40
2009,08,19,19,13,1.60
2009,08,19,19,14,3.20
2009,08,19,19,15,6.40
2009,08,19,19,16,3.20
2009,08,19,19,17,6.40
2009,08,19,19,18,6.40
2009,08,19,19,19,6.40
2009,08,19,19,20,6.40
2009,08,19,19,21,8.00
2009,08,19,19,22,4.80
2009,08,19,19,23,3.20
2009,08,19,19,24,3.20
2009,08,19,19,25,0.00
2009,08,19,19,26,0.00
2009,08,19,19,27,0.00
2009,08,19,19,28,0.00
2009,08,19,19,29,1.60
2009,08,19,19,30,8.00
2009,08,19,19,31,1.60
2009,08,19,19,32,8.00
2009,08,19,19,33,9.70
2009,08,19,19,38,3.20
2009,08,19,19,39,8.00
2009,08,19,19,40,1.60
2009,08,19,19,41,8.00
2009,08,19,19,42,8.00
2009,08,19,19,43,0.00
2009,08,19,19,44,6.40
2009,08,19,19,45,8.00
2009,08,19,19,46,0.00
2009,08,19,19,47,6.40
2009,08,19,19,48,6.40
2009,08,19,19,49,6.40
2009,08,19,19,50,8.00
2009,08,19,19,51,6.40
2009,08,19,19,52,8.00
2009,08,19,19,53,8.00
2009,08,19,19,54,4.80
2009,08,19,19,55,9.70
2009,08,19,19,56,9.70
2009,08,19,19,57,8.00
2009,08,19,19,58,6.40
2009,08,19,19,59,8.00
2009,08,19,20,00,8.00
2009,08,19,20,01,8.00
2009,08,19,20,02,8.00
2009,08,19,20,03,8.00
2009,08,19,20,04,1.60
2009,08,19,20,05,3.20
2009,08,19,20,06,3.20
2009,08,19,20,07,1.60
2009,08,19,20,08,0.00
2009,08,19,20,09,0.00
2009,08,19,20,10,4.80
2009,08,19,20,11,3.20
2009,08,19,20,12,6.40
2009,08,19,20,13,6.40
2009,08,19,20,14,8.00
2009,08,19,20,15,8.00
2009,08,19,20,16,4.80
2009,08,19,20,17,8.00
2009,08,19,20,18,9.70
2009,08,19,20,19,8.00
2009,08,19,20,20,9.70
2009,08,19,20,21,8.00
2009,08,19,20,22,8.00
2009,08,19,20,23,9.70
2009,08,19,20,24,8.00
2009,08,19,20,25,8.00
2009,08,19,20,26,1.60
2009,08,19,20,27,3.20
2009,08,19,20,28,6.40
2009,08,19,20,29,6.40
2009,08,19,20,30,8.00
2009,08,19,20,31,6.40
2009,08,19,20,32,9.70
2009,08,19,20,33,8.00
2009,08,19,20,34,6.40
2009,08,19,20,35,6.40
2009,08,19,20,36,6.40
2009,08,19,20,37,8.00
2009,08,19,20,38,8.00
2009,08,19,20,39,3.20
2009,08,19,20,40,6.40
2009,08,19,20,41,6.40
2009,08,19,20,42,3.20
2009,08,19,20,43,0.00
2009,08,19,20,44,0.00
2009,08,19,20,45,0.00
2009,08,19,20,46,0.00
2009,08,19,20,47,0.00
2009,08,19,20,48,3.20
2009,08,19,20,49,0.00
2009,08,19,20,50,0.00
2009,08,19,20,51,0.00
2009,08,19,20,52,0.00
2009,08,19,20,53,0.00
2009,08,19,20,54,1.60
2009,08,19,20,55,1.60
2009,08,19,20,56,0.00
2009,08,19,20,57,3.20
2009,08,19,20,58,8.00
2009,08,19,20,59,1.60
2009,08,19,21,00,3.20
2009,08,19,21,01,1.60
2009,08,19,21,02,1.60
2009,08,19,21,03,8.00
2009,08,19,21,04,1.60
2009,08,19,21,05,0.00
2009,08,19,21,06,1.60
2009,08,19,21,07,0.00
2009,08,19,21,08,0.00
2009,08,19,21,09,0.00
2009,08,19,21,10,0.00
2009,08,19,21,11,0.00
2009,08,19,21,12,6.40
2009,08,19,21,13,6.40
2009,08,19,21,14,4.80
2009,08,19,21,15,6.40
2009,08,19,21,16,1.60
2009,08,19,21,17,9.70
2009,08,19,21,18,8.00
2009,08,19,21,19,3.20
2009,08,19,21,20,9.70
2009,08,19,21,21,6.40
2009,08,19,21,22,8.00
2009,08,19,21,23,9.70
2009,08,19,21,24,6.40
2009,08,19,21,25,1.60
2009,08,19,21,26,0.00
2009,08,19,21,27,0.00
2009,08,19,21,28,0.00
2009,08,19,21,29,0.00
2009,08,19,21,30,0.00
2009,08,19,21,31,1.60
2009,08,19,21,32,3.20
2009,08,19,21,33,0.00
2009,08,19,21,34,0.00
2009,08,19,21,35,0.00
2009,08,19,21,36,0.00
2009,08,19,21,37,0.00
2009,08,19,21,38,0.00
2009,08,19,21,39,3.20
2009,08,19,21,40,1.60
2009,08,19,21,41,3.20
2009,08,19,21,42,6.40
2009,08,19,21,43,9.70
2009,08,19,21,44,9.70
2009,08,19,21,45,8.00
2009,08,19,21,46,8.00
2009,08,19,21,47,8.00
2009,08,19,21,48,6.40
2009,08,19,21,49,6.40
2009,08,19,21,50,1.60
2009,08,19,21,51,3.20
2009,08,19,21,52,3.20
2009,08,19,21,53,0.00
2009,08,19,21,54,0.00
2009,08,19,21,55,0.00
2009,08,19,21,56,3.20
2009,08,19,21,57,3.20
2009,08,19,21,58,0.00
2009,08,19,21,59,0.00
2009,08,19,22,00,0.00
2009,08,19,22,01,3.20
2009,08,19,22,02,3.20
2009,08,19,22,03,3.20
2009,08,19,22,04,6.40
2009,08,19,22,05,3.20
2009,08,19,22,06,3.20
2009,08,19,22,07,1.60
2009,08,19,22,08,0.00
2009,08,19,22,09,1.60
2009,08,19,22,10,4.80
2009,08,19,22,11,3.20
2009,08,19,22,12,4.80
2009,08,19,22,13,4.80
2009,08,19,22,14,8.00
2009,08,19,22,15,6.40
2009,08,19,22,16,4.80
2009,08,19,22,17,4.80
2009,08,19,22,18,0.00
2009,08,19,22,19,6.40
2009,08,19,22,20,3.20
2009,08,19,22,21,3.20
2009,08,19,22,22,1.60
2009,08,19,22,23,3.20
2009,08,19,22,24,0.00
2009,08,19,22,25,0.00
2009,08,19,22,26,0.00
2009,08,19,22,27,3.20
2009,08,19,22,28,0.00
2009,08,19,22,29,0.00
2009,08,19,22,30,1.60
2009,08,19,22,31,1.60
2009,08,19,22,32,0.00
2009,08,19,22,33,0.00
2009,08,19,22,34,0.00
2009,08,19,22,35,0.00
2009,08,19,22,36,0.00
2009,08,19,22,37,0.00
2009,08,19,22,38,3.20
2009,08,19,22,39,0.00
2009,08,19,22,40,0.00
2009,08,19,22,41,0.00
2009,08,19,22,42,0.00
2009,08,19,22,43,0.00
2009,08,19,22,44,0.00
2009,08,19,22,45,0.00
2009,08,19,22,46,0.00
2009,08,19,22,47,0.00
2009,08,19,22,48,0.00
2009,08,19,22,49,0.00
2009,08,19,22,50,0.00
2009,08,19,22,51,0.00
2009,08,19,22,52,0.00
2009,08,19,22,53,0.00
2009,08,19,22,54,0.00
2009,08,19,22,55,0.00
2009,08,19,22,56,0.00
2009,08,19,22,57,0.00
2009,08,19,22,58,0.00
2009,08,19,22,59,0.00
2009,08,19,23,00,0.00
2009,08,19,23,01,0.00
2009,08,19,23,02,0.00
2009,08,19,23,03,0.00
2009,08,19,23,04,0.00
2009,08,19,23,05,0.00
2009,08,19,23,06,0.00
2009,08,19,23,07,0.00
2009,08,19,23,08,0.00
2009,08,19,23,09,0.00
2009,08,19,23,10,0.00
2009,08,19,23,11,0.00
2009,08,19,23,12,0.00
2009,08,19,23,13,0.00
2009,08,19,23,14,0.00
2009,08,19,23,15,0.00
2009,08,19,23,16,0.00
2009,08,19,23,17,0.00
2009,08,19,23,18,0.00
2009,08,19,23,19,0.00
2009,08,19,23,20,0.00
2009,08,19,23,21,0.00
2009,08,19,23,22,3.20
2009,08,19,23,23,0.00
2009,08,19,23,24,0.00
2009,08,19,23,25,1.60
2009,08,19,23,26,0.00
2009,08,19,23,27,0.00
2009,08,19,23,28,0.00
2009,08,19,23,29,0.00
2009,08,19,23,30,0.00
2009,08,19,23,31,0.00
2009,08,19,23,32,3.20
2009,08,19,23,33,3.20
2009,08,19,23,34,1.60
2009,08,19,23,35,3.20
2009,08,19,23,36,1.60
2009,08,19,23,37,3.20
2009,08,19,23,38,0.00
2009,08,19,23,39,0.00
2009,08,19,23,40,0.00
2009,08,19,23,41,0.00
2009,08,19,23,42,0.00
2009,08,19,23,43,0.00
2009,08,19,23,44,0.00
2009,08,19,23,45,0.00
2009,08,19,23,46,0.00
2009,08,19,23,47,0.00
2009,08,19,23,48,0.00
2009,08,19,23,49,0.00
2009,08,19,23,50,0.00
2009,08,19,23,51,0.00
2009,08,19,23,52,0.00
2009,08,19,23,53,0.00
2009,08,19,23,54,0.00
2009,08,19,23,55,0.00
2009,08,19,23,56,0.00
2009,08,19,23,57,0.00
2009,08,19,23,58,0.00
